Regional Weather Roundup
Issued by NWS

Home | Current Version | Previous Version | Text Only | Print | Product List | Glossary Off
Versions: 1 2 3 4 5 6 7 8 9 10 11 12 13 14 15 16 17 18 19 20 21 22 23 24 25 26 27 28 29 30 31 32 33 34 35 36 37 38 39 40 41 42 43 44 45 46 47 48 49 50

988
ASUS43 KIND 172009
RWRIN

WEATHER ROUNDUP FOR INDIANA
NATIONAL WEATHER SERVICE INDIANAPOLIS IN
300 PM EST TUE JAN 17 2017

NOTE: "FAIR" INDICATES FEW OR NO CLOUDS BELOW 12,000 FEET WITH NO
SIGNIFICANT WEATHER AND/OR OBSTRUCTIONS TO VISIBILITY.

* - STATION DOES NOT REPORT WEATHER SUCH AS PRECIPITATION OR FOG.

+ - STATION NOT QUALITY CONTROLLED BY THE NATIONAL WEATHER SERVICE.
    USE DATA WITH CAUTION...ESPECIALLY DEWPOINT AND RELATIVE
    HUMIDITY OBSERVATIONS.

INZ001>003-010>013-019-020-172100-
NORTHWEST INDIANA

CITY           SKY/WX    TMP DP  RH WIND       PRES   REMARKS
GARY /AIRPORT/ CLOUDY    39  37  93 W14       29.89R
KNOX *+        CLOUDY    37  32  81 W13       29.89R
LA PORTE +     CLOUDY    39  38  97 W9        29.88R
MICHIGAN CITY+ CLOUDY    37  37 100 W6        29.88R
MONTICELLO +   CLOUDY    42  40  95 W10G17    29.91R FOG
RENSSELAER +   CLOUDY    39  39 100 W14G20    29.91R FOG
VALPARAISO     LGT RAIN  40  39  97 SW14      29.89R FOG

$$

LMZ046-743>745-172100-
SOUTHERN LAKE MICHIGAN

STATION/POSITION TIME  TEMP    WIND        PRES    WAVE
                       AIR SEA DIR/SP/G            HT
                 (UTC) (F)     (DEG/KT/KT) (MB)    (FT)
BURNS HARBOR     1940   37     240/ 11/ 12 1012.5R

$$

INZ004-005-014>016-021>024-172100-
NORTH CENTRAL INDIANA

CITY           SKY/WX    TMP DP  RH WIND       PRES   REMARKS
ELKHART        CLOUDY    39  39 100 W8        29.85R
GOSHEN         FOG       41  38  89 W12       29.86R VSB 1
LOGANSPORT +   CLOUDY    41  41 100 SW18      29.92R FOG
PERU/GRISSOM   DRIZZLE   43  43 100 W15       29.89R FOG
ROCHESTER +    CLOUDY    43  43 100 W14       29.90R FOG
SOUTH BEND     CLOUDY    40  39  97 SW7       29.87R
WARSAW +       CLOUDY    41  37  87 W14       29.87R FOG

$$

INZ006>009-017-018-025>027-172100-
NORTHEAST INDIANA

CITY           SKY/WX    TMP DP  RH WIND       PRES   REMARKS
ANGOLA *+      CLOUDY    43  41  93 W9        29.84R
AUBURN +       CLOUDY    43  41  93 SW9G20    29.86R FOG
FORT WAYNE     DRIZZLE   44  42  93 W17       29.88R FOG
HUNTINGTON +   CLOUDY    43  42  95 W12G17    29.89R FOG
KENDALLVILLE + CLOUDY    42  42 100 W12       29.85R FOG

$$

INZ028-029-035-036-043>045-051>053-172100-
WEST CENTRAL INDIANA

CITY           SKY/WX    TMP DP  RH WIND       PRES   REMARKS
CRAWFORDSVL +  CLOUDY    41  41 100 SW13G18   29.94R
GREENCASTLE +  CLOUDY    43  41  93 W8        29.95S
LAFAYETTE      CLOUDY    43  41  93 W12       29.93R
TERRE HAUTE    CLOUDY    45  40  82 W12       29.97S

$$

INZ030>032-037>040-046>048-054>057-064-065-172100-
CENTRAL INDIANA

CITY           SKY/WX    TMP DP  RH WIND       PRES   REMARKS
ANDERSON       CLOUDY    46  41  81 SW17      29.92
CP ATTERBURY + CLOUDY    46  41  81 W9        29.96R
COLUMBUS       CLOUDY    46  45  93 W12       29.96R
FISHERS *+     CLOUDY    43  43 100 W13       29.93R
FRANKFORT +    LGT RAIN  45  44  95 W12       29.94R
GREENWOOD *+   CLOUDY    47  43  83 W10G16    29.94F
INDIANAPOLIS   CLOUDY    46  41  82 W20       29.93S
-EAGLE CREEK   CLOUDY    46  40  79 SW8       29.93R
KOKOMO +       LGT RAIN  43  43 100 W18       29.92R FOG
MARION +       CLOUDY    45  43  93 W21       29.91R FOG
MT COMFORT *+  CLOUDY    46  41  81 SW14      29.93R
SHELBYVILLE    CLOUDY    47  40  76 W13       29.94R
ZIONSVILLE +   CLOUDY    43  41  95 W13       29.93R FOG

$$

INZ033-034-041-042-049-050-058-059-172100-
EAST CENTRAL INDIANA

CITY           SKY/WX    TMP DP  RH WIND       PRES   REMARKS
MUNCIE         CLOUDY    48  41  76 W14G23    29.91R

$$

INZ060-061-067>069-081>083-085>088-172100-
SOUTHWEST INDIANA

CITY           SKY/WX    TMP DP  RH WIND       PRES   REMARKS
EVANSVILLE     CLOUDY    48  41  76 W10       30.01S
HUNTINGBURG *+ CLOUDY    48  42  80 W13G21    30.01R
WASHINGTON +   CLOUDY    46  40  78 W10       29.99S

$$

INZ062-063-066-070>080-084-089>092-172100-
SOUTH CENTRAL AND SOUTHEAST INDIANA

CITY           SKY/WX    TMP DP  RH WIND       PRES   REMARKS
BLOOMINGTON    CLOUDY    47  39  74 SW7       29.96R
MADISON *+     CLOUDY    54  45  71 W9        29.95S
NORTH VERNON + CLOUDY    52  46  82 W17G23    29.95R
SEYMOUR +      CLOUDY    52  43  71 W17       29.95R

$$





USA.gov is the U.S. government's official web portal to all federal, state and local government web resources and services.